Location: Bull Meadow Creek
(37.8674°N, 120.0624°W)
Time: 14:37:52
(UTC+00:00)

DMSP B5D2-2 - Pass Details

Date: 13 June 2024
Orbit: 786 x 804 km, 98.3° (Epoch: 23 July)

Event Time Altitude Azimuth Distance (km) Brightness Sun altitude
Rises 11:57:51 0° 170° (S) 3,295 7.0 -7.3°
Reaches altitude 10° 12:00:10 10° 171° (S) 2,370 6.3 -7.0°
Maximum altitude 12:05:25 76° 257° (WSW) 830 4.1 -6.1°
Drops below altitude 10° 12:10:43 10° 344° (NNW) 2,390 6.8 -5.3°
Sets 12:13:04 0° 346° (NNW) 3,324 7.6 -4.9°
